Location: Newark
(45.8667°N, 9.7333°E)
Time: 10:30:39
(UTC+00:00)

Vanguard 3 - Pass Details

Date: 29 January 2020
Orbit: 508 x 3263 km, 33.3° (Epoch: 19 February)

Event Time Altitude Azimuth Distance (km) Brightness Sun altitude
Rises 22:01:52 0° 278° (W) 7,052 12.3 -56.1°
Reaches altitude 10° 22:08:35 10° 265° (W) 5,714 11.6 -56.9°
Enters shadow 22:15:34 19° 243° (WSW) 4,505 10.8 -57.6°
Maximum altitude 22:19:08 21° 226° (SW) 4,092 - -58.0°
Drops below altitude 10° 22:27:03 10° 183° (S) 4,135 - -58.7°
Sets 22:30:53 0° 168° (SSE) 4,683 - -59.1°
